,,Stat5,,Stat1,,Stat2,,Stat3,,Stat4,,Wind1,,Wind1,
time,status,PA1M_AVG,status,PR1M_SUM,status,RH1M_AVG,status,SR1M_AVG,status,TA1M_AVG,status,W1dAve1m,status,W1sAve1m,
2001-02-07, 00:00:00,VALID,915.99,VALID,0,VALID,97.3502,VALID,0,VALID,19.0497,VALID,197,VALID,0.97895,
2001-02-07, 00:01:00,VALID,915.96,VALID,0,VALID,97.2879,VALID,0,VALID,19.0561,VALID,197,VALID,0.916596,
2001-02-07, 00:02:00,VALID,915.924,VALID,0,VALID,97.2968,VALID,-0.0169808,VALID,19.0559,VALID,196,VALID,0.983553,
2001-02-07, 00:03:00,VALID,915.915,VALID,0,VALID,97.3451,VALID,0,VALID,19.0529,VALID,206,VALID,0.672492,
2001-02-07, 00:04:00,VALID,915.9,VALID,0,VALID,97.3655,VALID,-0.0169808,VALID,19.0633,VALID,206,VALID,1.11602,
2001-02-07, 00:05:00,VALID,915.882,VALID,0,VALID,97.4354,VALID,-0.0169808,VALID,19.0467,VALID,219,VALID,0.830078,
2001-02-07, 00:06:00,VALID,915.876,VALID,0,VALID,97.3782,VALID,-0.0169808,VALID,19.0432,VALID,192,VALID,1.58573,
2001-02-07, 00:07:00,VALID,915.855,VALID,0,VALID,97.2765,VALID,0,VALID,19.0661,VALID,219,VALID,0.958265,
2001-02-07, 00:08:00,VALID,915.849,VALID,0,VALID,97.2345,VALID,-0.0339617,VALID,19.082,VALID,227,VALID,1.02888,
2001-02-07, 00:09:00,VALID,915.827,VALID,0,VALID,97.1862,VALID,-0.0169808,VALID,19.0921,VALID,224,VALID,0.589638,
2001-02-07, 00:10:00,VALID,915.812,VALID,0,VALID,97.218,VALID,0,VALID,19.0686,VALID,204,VALID,0.71582,
2001-02-07, 00:11:00,VALID,915.807,VALID,0,VALID,97.2065,VALID,-0.0169808,VALID,19.0623,VALID,180,VALID,1.32134,
2001-02-07, 00:12:00,VALID,915.791,VALID,0,VALID,97.1328,VALID,0,VALID,19.082,VALID,200,VALID,0.687089,
2001-02-07, 00:13:00,VALID,915.771,VALID,0,VALID,97.1086,VALID,-0.0169808,VALID,19.0951,VALID,219,VALID,1.04729,
2001-02-07, 00:14:00,VALID,915.76,VALID,0,VALID,97.0438,VALID,-0.0169808,VALID,19.1016,VALID,222,VALID,1.08393,
2001-02-07, 00:15:00,VALID,915.741,VALID,0,VALID,97.0005,VALID,0,VALID,19.1011,VALID,220,VALID,0.963894,
2001-02-07, 00:16:00,VALID,915.717,VALID,0,VALID,96.9751,VALID,0,VALID,19.1076,VALID,215,VALID,0.742188,
2001-02-07, 00:17:00,VALID,915.717,VALID,0,VALID,96.9509,VALID,-0.0169808,VALID,19.0981,VALID,222,VALID,1.01035,
2001-02-07, 00:18:00,VALID,915.701,VALID,0,VALID,96.9751,VALID,0,VALID,19.079,VALID,223,VALID,1.17426,
2001-02-07, 00:19:00,VALID,915.698,VALID,0,VALID,97.0781,VALID,0,VALID,19.0596,VALID,229,VALID,1.09945,
2001-02-07, 00:20:00,VALID,915.691,VALID,0,VALID,97.148,VALID,0.0169808,VALID,19.0467,VALID,228,VALID,1.24733,
2001-02-07, 00:21:00,VALID,915.673,VALID,0,VALID,97.1671,VALID,-0.0169808,VALID,19.0171,VALID,228,VALID,1.0933,
2001-02-07, 00:22:00,VALID,915.645,VALID,0,VALID,97.2396,VALID,-0.0169808,VALID,19.0077,VALID,229,VALID,0.971284,
2001-02-07, 00:23:00,VALID,915.627,VALID,0,VALID,97.2841,VALID,0,VALID,18.995,VALID,212,VALID,0.759252,
2001-02-07, 00:24:00,VALID,915.608,VALID,0,VALID,97.2841,VALID,0,VALID,18.9913,VALID,205,VALID,0.817187,
2001-02-07, 00:25:00,VALID,915.593,VALID,0,VALID,97.3833,VALID,0,VALID,18.9915,VALID,221,VALID,0.866587,
2001-02-07, 00:26:00,VALID,915.569,VALID,0,VALID,97.4634,VALID,0,VALID,18.9977,VALID,221,VALID,0.88954,
2001-02-07, 00:27:00,VALID,915.553,VALID,0,VALID,97.4799,VALID,0,VALID,19.0111,VALID,218,VALID,0.842928,
2001-02-07, 00:28:00,VALID,915.528,VALID,0,VALID,97.4774,VALID,-0.0169808,VALID,19.0176,VALID,228,VALID,0.753289,
2001-02-07, 00:29:00,VALID,915.505,VALID,0,VALID,97.5155,VALID,-0.0339617,VALID,19.0174,VALID,221,VALID,0.896959,
2001-02-07, 00:30:00,VALID,915.506,VALID,0,VALID,97.5664,VALID,0,VALID,19.0107,VALID,218,VALID,0.963867,
2001-02-07, 00:31:00,VALID,915.483,VALID,0,VALID,97.6033,VALID,-0.0169808,VALID,19.0204,VALID,225,VALID,0.896034,
2001-02-07, 00:32:00,VALID,915.469,VALID,0,VALID,97.6198,VALID,0.0169808,VALID,19.037,VALID,217,VALID,1.2498,
2001-02-07, 00:33:00,VALID,915.465,VALID,0,VALID,97.5944,VALID,0,VALID,19.0303,VALID,230,VALID,1.23142,
2001-02-07, 00:34:00,VALID,915.46,VALID,0,VALID,97.6338,VALID,0,VALID,19.0176,VALID,229,VALID,1.1274,
2001-02-07, 00:35:00,VALID,915.461,VALID,0,VALID,97.6351,VALID,0,VALID,19.0178,VALID,238,VALID,1.17486,
2001-02-07, 00:36:00,VALID,915.446,VALID,0,VALID,97.658,VALID,0,VALID,18.9881,VALID,231,VALID,1.2209,
2001-02-07, 00:37:00,VALID,915.456,VALID,0,VALID,97.6948,VALID,-0.0339617,VALID,18.9883,VALID,242,VALID,1.53043,
2001-02-07, 00:38:00,VALID,915.448,VALID,0,VALID,97.7495,VALID,-0.0509425,VALID,18.9758,VALID,234,VALID,1.26763,
2001-02-07, 00:39:00,VALID,915.429,VALID,0,VALID,97.8385,VALID,-0.0339617,VALID,18.9729,VALID,222,VALID,0.724507,
2001-02-07, 00:40:00,VALID,915.431,VALID,0,VALID,97.9085,VALID,-0.0339617,VALID,18.9463,VALID,217,VALID,0.922461,
2001-02-07, 00:41:00,VALID,915.404,VALID,0,VALID,97.9708,VALID,0,VALID,18.9403,VALID,215,VALID,1.57832,
2001-02-07, 00:42:00,VALID,915.403,VALID,0,VALID,97.9949,VALID,0.0169808,VALID,18.9398,VALID,214,VALID,1.14263,
2001-02-07, 00:43:00,VALID,915.401,VALID,0,VALID,98.0077,VALID,0,VALID,18.9498,VALID,239,VALID,0.998766,
2001-02-07, 00:44:00,VALID,915.396,VALID,0,VALID,98.0178,VALID,0,VALID,18.9821,VALID,247,VALID,0.9706,
2001-02-07, 00:45:00,VALID,915.382,VALID,0,VALID,97.9809,VALID,0,VALID,18.9885,VALID,244,VALID,0.819712,
2001-02-07, 00:46:00,VALID,915.377,VALID,0,VALID,97.9339,VALID,0,VALID,19.0047,VALID,220,VALID,1.40836,
2001-02-07, 00:47:00,VALID,915.374,VALID,0,VALID,97.8652,VALID,0,VALID,18.9977,VALID,234,VALID,0.751603,
2001-02-07, 00:48:00,VALID,915.369,VALID,0,VALID,97.8983,VALID,0,VALID,19.0079,VALID,226,VALID,1.2691,
2001-02-07, 00:49:00,VALID,915.36,VALID,0,VALID,97.9237,VALID,0,VALID,19.0206,VALID,215,VALID,1.81293,
2001-02-07, 00:50:00,VALID,915.357,VALID,0,VALID,97.9059,VALID,0,VALID,19.0601,VALID,236,VALID,1.09175,
2001-02-07, 00:51:00,VALID,915.362,VALID,0,VALID,97.8843,VALID,-0.0339617,VALID,19.0628,VALID,231,VALID,1.37183,
2001-02-07, 00:52:00,VALID,915.354,VALID,0,VALID,97.8551,VALID,-0.0169808,VALID,19.0887,VALID,237,VALID,1.69291,
2001-02-07, 00:53:00,VALID,915.337,VALID,0,VALID,97.808,VALID,0,VALID,19.0979,VALID,230,VALID,1.56558,
2001-02-07, 00:54:00,VALID,915.331,VALID,0,VALID,97.7635,VALID,-0.0169808,VALID,19.1277,VALID,235,VALID,1.80259,
2001-02-07, 00:55:00,VALID,915.334,VALID,0,VALID,97.7635,VALID,0,VALID,19.1403,VALID,222,VALID,1.86518,
2001-02-07, 00:56:00,VALID,915.324,VALID,0,VALID,97.6986,VALID,0,VALID,19.1537,VALID,220,VALID,1.87183,
2001-02-07, 00:57:00,VALID,915.31,VALID,0,VALID,97.6147,VALID,-0.0169808,VALID,19.1664,VALID,229,VALID,1.72847,
2001-02-07, 00:58:00,VALID,915.283,VALID,0,VALID,97.5855,VALID,0,VALID,19.1659,VALID,222,VALID,1.79848,
2001-02-07, 00:59:00,VALID,915.271,VALID,0,VALID,97.5486,VALID,-0.0169808,VALID,19.1791,VALID,218,VALID,1.80807,
2001-02-07, 01:00:00,VALID,915.262,VALID,0,VALID,97.5155,VALID,0,VALID,19.1826,VALID,223,VALID,1.47526,
2001-02-07, 01:01:00,VALID,915.244,VALID,0,VALID,97.5168,VALID,-0.0169808,VALID,19.1823,VALID,224,VALID,2.29788,
2001-02-07, 01:02:00,VALID,915.242,VALID,0,VALID,97.4939,VALID,-0.0339617,VALID,19.1923,VALID,223,VALID,2.3943,
2001-02-07, 01:03:00,VALID,915.242,VALID,0,VALID,97.4329,VALID,-0.0339617,VALID,19.2022,VALID,218,VALID,2.09277,
2001-02-07, 01:04:00,VALID,915.226,VALID,0,VALID,97.3299,VALID,0,VALID,19.2276,VALID,222,VALID,1.70518,
2001-02-07, 01:05:00,VALID,915.203,VALID,0,VALID,97.3083,VALID,0,VALID,19.2377,VALID,216,VALID,1.26649,
2001-02-07, 01:06:00,VALID,915.188,VALID,0,VALID,97.2777,VALID,-0.0169808,VALID,19.2373,VALID,229,VALID,2.09601,
2001-02-07, 01:07:00,VALID,915.176,VALID,0,VALID,97.218,VALID,-0.0169808,VALID,19.2407,VALID,232,VALID,1.4125,
2001-02-07, 01:08:00,VALID,915.144,VALID,0,VALID,97.0984,VALID,-0.0339617,VALID,19.2532,VALID,219,VALID,2.05695,
2001-02-07, 01:09:00,VALID,915.144,VALID,0,VALID,96.9955,VALID,0,VALID,19.2763,VALID,199,VALID,1.26049,
2001-02-07, 01:10:00,VALID,915.133,VALID,0,VALID,96.8212,VALID,-0.0169808,VALID,19.312,VALID,214,VALID,1.84824,
2001-02-07, 01:11:00,VALID,915.124,VALID,0,VALID,96.6254,VALID,-0.0339617,VALID,19.3279,VALID,223,VALID,1.92869,
2001-02-07, 01:12:00,VALID,915.123,VALID,0,VALID,96.5262,VALID,-0.0169808,VALID,19.3473,VALID,217,VALID,1.73881,
2001-02-07, 01:13:00,VALID,915.118,VALID,0,VALID,96.4944,VALID,-0.0339617,VALID,19.3506,VALID,210,VALID,1.71137,
2001-02-07, 01:14:00,VALID,915.123,VALID,0,VALID,96.4792,VALID,-0.0509425,VALID,19.351,VALID,212,VALID,1.4399,
2001-02-07, 01:15:00,VALID,915.135,VALID,0,VALID,96.4499,VALID,-0.0169808,VALID,19.3568,VALID,210,VALID,1.48585,
2001-02-07, 01:16:00,VALID,915.151,VALID,0,VALID,96.4309,VALID,0,VALID,19.3464,VALID,202,VALID,1.29751,
2001-02-07, 01:17:00,VALID,915.142,VALID,0,VALID,96.3736,VALID,0,VALID,19.3528,VALID,217,VALID,1.57889,
2001-02-07, 01:18:00,VALID,915.163,VALID,0,VALID,96.2287,VALID,-0.0169808,VALID,19.3729,VALID,232,VALID,1.47551,
2001-02-07, 01:19:00,VALID,915.174,VALID,0,VALID,96.1473,VALID,0,VALID,19.3923,VALID,222,VALID,0.828516,
2001-02-07, 01:20:00,VALID,915.169,VALID,0,VALID,96.1371,VALID,-0.0169808,VALID,19.3921,VALID,214,VALID,0.915665,
2001-02-07, 01:21:00,VALID,915.175,VALID,0,VALID,96.1435,VALID,-0.0169808,VALID,19.4022,VALID,233,VALID,1.28809,
2001-02-07, 01:22:00,VALID,915.164,VALID,0,VALID,96.1002,VALID,-0.0339617,VALID,19.4025,VALID,221,VALID,0.881785,
2001-02-07, 01:23:00,VALID,915.167,VALID,0,VALID,96.174,VALID,-0.0169808,VALID,19.3821,VALID,228,VALID,0.379934,
2001-02-07, 01:24:00,VALID,915.165,VALID,0,VALID,96.2528,VALID,-0.0339617,VALID,19.3854,VALID,213,VALID,0.573269,
2001-02-07, 01:25:00,VALID,915.16,VALID,0,VALID,96.2363,VALID,0,VALID,19.3759,VALID,224,VALID,1.45449,
2001-02-07, 01:26:00,VALID,915.163,VALID,0,VALID,96.2655,VALID,0,VALID,19.3695,VALID,205,VALID,0.935547,
2001-02-07, 01:27:00,VALID,915.165,VALID,0,VALID,96.2745,VALID,0,VALID,19.3692,VALID,214,VALID,0.859164,
2001-02-07, 01:28:00,VALID,915.168,VALID,0,VALID,96.3279,VALID,0,VALID,19.3628,VALID,196,VALID,0.952097,
2001-02-07, 01:29:00,VALID,915.157,VALID,0,VALID,96.3291,VALID,0,VALID,19.3565,VALID,212,VALID,0.929451,
2001-02-07, 01:30:00,VALID,915.149,VALID,0,VALID,96.3825,VALID,0,VALID,19.363,VALID,208,VALID,0.742804,
2001-02-07, 01:31:00,VALID,915.143,VALID,0,VALID,96.4143,VALID,0,VALID,19.3531,VALID,179,VALID,0.921094,
2001-02-07, 01:32:00,VALID,915.14,VALID,0,VALID,96.422,VALID,-0.0339617,VALID,19.3498,VALID,202,VALID,0.712788,
2001-02-07, 01:33:00,VALID,915.125,VALID,0,VALID,96.455,VALID,0,VALID,19.3401,VALID,204,VALID,0.94449,
2001-02-07, 01:34:00,VALID,915.102,VALID,0,VALID,96.5326,VALID,0,VALID,19.3434,VALID,217,VALID,0.672492,
2001-02-07, 01:35:00,VALID,915.102,VALID,0,VALID,96.614,VALID,0,VALID,19.3302,VALID,194,VALID,1.18329,
2001-02-07, 01:36:00,VALID,915.087,VALID,0,VALID,96.6648,VALID,0.0339617,VALID,19.3205,VALID,184,VALID,0.834882,
2001-02-07, 01:37:00,VALID,915.076,VALID,0,VALID,96.7348,VALID,0,VALID,19.3173,VALID,207,VALID,0.536595,
2001-02-07, 01:38:00,VALID,915.093,VALID,0,VALID,96.8009,VALID,0,VALID,19.3339,VALID,199,VALID,0.698047,
2001-02-07, 01:39:00,VALID,915.078,VALID,0,VALID,96.8632,VALID,0,VALID,19.3145,VALID,196,VALID,0.703559,
2001-02-07, 01:40:00,VALID,915.074,VALID,0,VALID,96.8899,VALID,-0.0169808,VALID,19.2944,VALID,190,VALID,0.615287,
2001-02-07, 01:41:00,VALID,915.068,VALID,0,VALID,96.9573,VALID,0,VALID,19.2914,VALID,204,VALID,0.517064,
2001-02-07, 01:42:00,VALID,915.09,VALID,0,VALID,96.9942,VALID,-0.0339617,VALID,19.2882,VALID,219,VALID,0.51183,
2001-02-07, 01:43:00,VALID,915.086,VALID,0,VALID,97.0107,VALID,-0.0169808,VALID,19.3053,VALID,253,VALID,0.565034,
2001-02-07, 01:44:00,VALID,915.087,VALID,0,VALID,96.9891,VALID,-0.0339617,VALID,19.3113,VALID,203,VALID,0.363692,
2001-02-07, 01:45:00,VALID,915.08,VALID,0,VALID,96.9738,VALID,-0.0339617,VALID,19.3044,VALID,245,VALID,0.371875,
2001-02-07, 01:46:00,VALID,915.085,VALID,0,VALID,96.9789,VALID,0,VALID,19.3277,VALID,191,VALID,0.157853,
2001-02-07, 01:47:00,VALID,915.082,VALID,0,VALID,96.9408,VALID,0,VALID,19.3337,VALID,230,VALID,0.571181,
2001-02-07, 01:48:00,VALID,915.074,VALID,0,VALID,96.8479,VALID,0,VALID,19.3401,VALID,263,VALID,0.426809,
2001-02-07, 01:49:00,VALID,915.079,VALID,0,VALID,96.8187,VALID,0,VALID,19.3501,VALID,251,VALID,0.331003,
2001-02-07, 01:50:00,VALID,915.08,VALID,0,VALID,96.8314,VALID,0,VALID,19.3464,VALID,303,VALID,0.426098,
2001-02-07, 01:51:00,VALID,915.079,VALID,0,VALID,96.9446,VALID,0,VALID,19.3394,VALID,316,VALID,0.448828,
2001-02-07, 01:52:00,VALID,915.066,VALID,0,VALID,97.1315,VALID,0,VALID,19.327,VALID,331,VALID,0.489383,
2001-02-07, 01:53:00,VALID,915.055,VALID,0,VALID,97.2498,VALID,0,VALID,19.2753,VALID,352,VALID,0.71895,
2001-02-07, 01:54:00,VALID,915.055,VALID,0,VALID,97.3871,VALID,0,VALID,19.2204,VALID,356,VALID,0.602196,
2001-02-07, 01:55:00,VALID,915.056,VALID,0,VALID,97.5855,VALID,-0.0339617,VALID,19.1913,VALID,347,VALID,0.361178,
2001-02-07, 01:56:00,VALID,915.041,VALID,0,VALID,97.7063,VALID,0,VALID,19.1659,VALID,354,VALID,0.27045,
2001-02-07, 01:57:00,VALID,915.045,VALID,0,VALID,97.8131,VALID,0,VALID,19.1466,VALID,354,VALID,0,
2001-02-07, 01:58:00,VALID,915.041,VALID,0,VALID,97.8958,VALID,0,VALID,19.1332,VALID,354,VALID,0,
2001-02-07, 01:59:00,VALID,915.032,VALID,0,VALID,98.0204,VALID,-0.0339617,VALID,19.1438,VALID,355,VALID,0.0116186,
2001-02-07, 02:00:00,VALID,915.017,VALID,0,VALID,98.1183,VALID,-0.0339617,VALID,19.1473,VALID,360,VALID,0.221012,
2001-02-07, 02:01:00,VALID,915.01,VALID,0,VALID,98.1806,VALID,-0.0679233,VALID,19.124,VALID,16,VALID,0.0667969,
2001-02-07, 02:02:00,VALID,915.004,VALID,0,VALID,98.234,VALID,-0.0339617,VALID,19.1408,VALID,16,VALID,0,
2001-02-07, 02:03:00,VALID,914.995,VALID,0,VALID,98.2887,VALID,0,VALID,19.114,VALID,42,VALID,0,
2001-02-07, 02:04:00,VALID,914.977,VALID,0,VALID,98.3319,VALID,-0.0169808,VALID,19.121,VALID,97,VALID,0.172492,
2001-02-07, 02:05:00,VALID,914.975,VALID,0,VALID,98.398,VALID,-0.0509425,VALID,19.1173,VALID,104,VALID,0.641426,
2001-02-07, 02:06:00,VALID,914.967,VALID,0,VALID,98.4235,VALID,-0.0169808,VALID,19.1244,VALID,101,VALID,0.800881,
2001-02-07, 02:07:00,VALID,914.977,VALID,0,VALID,98.4603,VALID,-0.0339617,VALID,19.1108,VALID,97,VALID,0.622466,
2001-02-07, 02:08:00,VALID,914.969,VALID,0,VALID,98.4705,VALID,-0.0339617,VALID,19.1051,VALID,103,VALID,0.551883,
2001-02-07, 02:09:00,VALID,914.965,VALID,0,VALID,98.4858,VALID,0,VALID,19.0914,VALID,96,VALID,0.413845,
2001-02-07, 02:10:00,VALID,914.954,VALID,0,VALID,98.4934,VALID,-0.0339617,VALID,19.075,VALID,102,VALID,0.383464,
2001-02-07, 02:11:00,VALID,914.942,VALID,0,VALID,98.5163,VALID,-0.0339617,VALID,19.0887,VALID,127,VALID,0.148237,
2001-02-07, 02:12:00,VALID,914.938,VALID,0,VALID,98.4947,VALID,-0.0169808,VALID,19.0661,VALID,181,VALID,0.214105,
2001-02-07, 02:13:00,VALID,914.934,VALID,0,VALID,98.501,VALID,-0.0509425,VALID,19.0462,VALID,198,VALID,0.335537,
2001-02-07, 02:14:00,VALID,914.911,VALID,0,VALID,98.4934,VALID,-0.0509425,VALID,19.0303,VALID,194,VALID,0.226563,
2001-02-07, 02:15:00,VALID,914.886,VALID,0,VALID,98.5099,VALID,-0.0509425,VALID,19.0241,VALID,181,VALID,0.250572,
2001-02-07, 02:16:00,VALID,914.873,VALID,0,VALID,98.5417,VALID,-0.0169808,VALID,19.0174,VALID,160,VALID,0.471955,
2001-02-07, 02:17:00,VALID,914.874,VALID,0,VALID,98.5722,VALID,-0.0339617,VALID,19.0238,VALID,145,VALID,0.742399,
2001-02-07, 02:18:00,VALID,914.862,VALID,0,VALID,98.5913,VALID,0,VALID,19.0333,VALID,135,VALID,0.748666,
2001-02-07, 02:19:00,VALID,914.861,VALID,0,VALID,98.604,VALID,-0.0169808,VALID,19.04,VALID,133,VALID,0.833333,
2001-02-07, 02:20:00,VALID,914.876,VALID,0,VALID,98.6028,VALID,-0.0169808,VALID,19.037,VALID,130,VALID,0.819468,
2001-02-07, 02:21:00,VALID,914.879,VALID,0,VALID,98.585,VALID,0,VALID,19.0263,VALID,120,VALID,0.666667,
2001-02-07, 02:22:00,VALID,914.88,VALID,0,VALID,98.6078,VALID,-0.0169808,VALID,19.0333,VALID,112,VALID,0.629808,
2001-02-07, 02:23:00,VALID,914.89,VALID,0,VALID,98.6104,VALID,-0.0169808,VALID,19.03,VALID,132,VALID,0.481618,
2001-02-07, 02:24:00,VALID,914.881,VALID,0,VALID,98.6015,VALID,-0.0339617,VALID,19.0266,VALID,139,VALID,0.335742,
2001-02-07, 02:25:00,VALID,914.89,VALID,0,VALID,98.5735,VALID,0,VALID,19.0137,VALID,169,VALID,0.306743,
2001-02-07, 02:26:00,VALID,914.894,VALID,0,VALID,98.5672,VALID,0,VALID,19.0037,VALID,172,VALID,0.386936,
2001-02-07, 02:27:00,VALID,914.885,VALID,0,VALID,98.5939,VALID,-0.0509425,VALID,19.0074,VALID,173,VALID,0.452303,
2001-02-07, 02:28:00,VALID,914.893,VALID,0,VALID,98.6104,VALID,-0.0339617,VALID,18.995,VALID,174,VALID,0.472852,
2001-02-07, 02:29:00,VALID,914.889,VALID,0,VALID,98.6574,VALID,-0.0679233,VALID,19.0146,VALID,165,VALID,0.516653,
2001-02-07, 02:30:00,VALID,914.901,VALID,0,VALID,98.6638,VALID,-0.0339617,VALID,19.0074,VALID,152,VALID,0.508224,
2001-02-07, 02:31:00,VALID,914.896,VALID,0,VALID,98.6549,VALID,-0.0679233,VALID,19.0111,VALID,144,VALID,0.695508,
2001-02-07, 02:32:00,VALID,914.892,VALID,0,VALID,98.6676,VALID,-0.0339617,VALID,19.0243,VALID,112,VALID,0.635417,
2001-02-07, 02:33:00,VALID,914.91,VALID,0,VALID,98.7032,VALID,-0.0679233,VALID,19.0596,VALID,102,VALID,0.747044,
2001-02-07, 02:34:00,VALID,914.902,VALID,0,VALID,98.6994,VALID,-0.0849042,VALID,19.0693,VALID,102,VALID,0.780382,
2001-02-07, 02:35:00,VALID,914.894,VALID,0,VALID,98.6638,VALID,-0.0509425,VALID,19.0501,VALID,105,VALID,0.736178,
2001-02-07, 02:36:00,VALID,914.89,VALID,0,VALID,98.6536,VALID,0,VALID,19.04,VALID,107,VALID,0.874789,
2001-02-07, 02:37:00,VALID,914.876,VALID,0,VALID,98.6396,VALID,-0.0339617,VALID,19.0273,VALID,106,VALID,0.865287,
2001-02-07, 02:38:00,VALID,914.872,VALID,0,VALID,98.6396,VALID,-0.0339617,VALID,19.0005,VALID,109,VALID,0.77096,
2001-02-07, 02:39:00,VALID,914.869,VALID,0,VALID,98.6435,VALID,-0.0169808,VALID,18.998,VALID,111,VALID,0.740287,
2001-02-07, 02:40:00,VALID,914.859,VALID,0,VALID,98.6524,VALID,-0.0339617,VALID,19.0014,VALID,99,VALID,0.65,
2001-02-07, 02:41:00,VALID,914.859,VALID,0,VALID,98.6613,VALID,0,VALID,19.0074,VALID,96,VALID,0.513221,
2001-02-07, 02:42:00,VALID,914.861,VALID,0,VALID,98.6498,VALID,-0.0169808,VALID,19.0012,VALID,92,VALID,0.610742,
2001-02-07, 02:43:00,VALID,914.856,VALID,0,VALID,98.6549,VALID,0,VALID,18.9913,VALID,90,VALID,0.535567,
2001-02-07, 02:44:00,VALID,914.86,VALID,0,VALID,98.6536,VALID,-0.0169808,VALID,18.9881,VALID,62,VALID,0.581003,
2001-02-07, 02:45:00,VALID,914.853,VALID,0,VALID,98.6053,VALID,-0.0339617,VALID,18.9587,VALID,48,VALID,0.730997,
2001-02-07, 02:46:00,VALID,914.846,VALID,0,VALID,98.5888,VALID,-0.0169808,VALID,18.9525,VALID,41,VALID,0.592383,
2001-02-07, 02:47:00,VALID,914.845,VALID,0,VALID,98.604,VALID,-0.0169808,VALID,18.9555,VALID,42,VALID,0.1352,
2001-02-07, 02:48:00,VALID,914.835,VALID,0,VALID,98.6295,VALID,0,VALID,18.9754,VALID,4,VALID,0.274282,
2001-02-07, 02:49:00,VALID,914.83,VALID,0,VALID,98.6473,VALID,-0.0169808,VALID,18.9652,VALID,358,VALID,0.00205592,
2001-02-07, 02:50:00,VALID,914.817,VALID,0,VALID,98.6765,VALID,-0.0169808,VALID,18.9749,VALID,358,VALID,0,
2001-02-07, 02:51:00,VALID,914.806,VALID,0,VALID,98.7058,VALID,0,VALID,18.9878,VALID,33,VALID,0.132196,
2001-02-07, 02:52:00,VALID,914.806,VALID,0,VALID,98.7185,VALID,0,VALID,18.9947,VALID,49,VALID,0.0558594,
2001-02-07, 02:53:00,VALID,914.808,VALID,0,VALID,98.7172,VALID,-0.0169808,VALID,18.9883,VALID,93,VALID,0.387952,
2001-02-07, 02:54:00,VALID,914.812,VALID,0,VALID,98.7375,VALID,0,VALID,18.9881,VALID,97,VALID,0.478618,
2001-02-07, 02:55:00,VALID,914.83,VALID,0,VALID,98.749,VALID,-0.0339617,VALID,18.9816,VALID,97,VALID,0.358758,
2001-02-07, 02:56:00,VALID,914.819,VALID,0,VALID,98.7706,VALID,0,VALID,18.998,VALID,97,VALID,0.122997,
2001-02-07, 02:57:00,VALID,914.826,VALID,0,VALID,98.7744,VALID,-0.0169808,VALID,19.004,VALID,97,VALID,0.017103,
2001-02-07, 02:58:00,VALID,914.813,VALID,0,VALID,98.7477,VALID,0,VALID,18.9943,VALID,97,VALID,0.222039,
2001-02-07, 02:59:00,VALID,914.812,VALID,0,VALID,98.7337,VALID,0,VALID,18.9784,VALID,97,VALID,0,
2001-02-07, 03:00:00,VALID,914.806,VALID,0,VALID,98.7388,VALID,0,VALID,18.9848,VALID,97,VALID,0,
2001-02-07, 03:01:00,VALID,914.798,VALID,0,VALID,98.7465,VALID,0,VALID,18.9814,VALID,97,VALID,0,
2001-02-07, 03:02:00,VALID,914.78,VALID,0,VALID,98.7439,VALID,0,VALID,18.9816,VALID,97,VALID,0,
2001-02-07, 03:03:00,VALID,914.77,VALID,0,VALID,98.7465,VALID,0,VALID,18.991,VALID,97,VALID,0,
2001-02-07, 03:04:00,VALID,914.76,VALID,0,VALID,98.7617,VALID,0,VALID,18.9977,VALID,97,VALID,0,
2001-02-07, 03:05:00,VALID,914.736,VALID,0,VALID,98.7299,VALID,0,VALID,18.9977,VALID,97,VALID,0,
2001-02-07, 03:06:00,VALID,914.737,VALID,0,VALID,98.7236,VALID,0,VALID,18.9913,VALID,97,VALID,0,
2001-02-07, 03:07:00,VALID,914.721,VALID,0,VALID,98.7363,VALID,0,VALID,18.9975,VALID,97,VALID,0,
2001-02-07, 03:08:00,VALID,914.713,VALID,0,VALID,98.7706,VALID,0.0169808,VALID,19.0104,VALID,97,VALID,0,
2001-02-07, 03:09:00,VALID,914.704,VALID,0,VALID,98.7757,VALID,0.0169808,VALID,19.0266,VALID,97,VALID,0,
2001-02-07, 03:10:00,VALID,914.699,VALID,0,VALID,98.7922,VALID,0,VALID,19.033,VALID,97,VALID,0.0710938,
2001-02-07, 03:11:00,VALID,914.699,VALID,0,VALID,98.7859,VALID,0,VALID,19.043,VALID,97,VALID,0.217272,
2001-02-07, 03:12:00,VALID,914.679,VALID,0,VALID,98.7782,VALID,0,VALID,19.0395,VALID,97,VALID,0.3125,
2001-02-07, 03:13:00,VALID,914.684,VALID,0,VALID,98.7439,VALID,-0.0169808,VALID,19.0397,VALID,97,VALID,0.201723,
2001-02-07, 03:14:00,VALID,914.682,VALID,0,VALID,98.707,VALID,0.0169808,VALID,19.0176,VALID,97,VALID,0.122196,
2001-02-07, 03:15:00,VALID,914.675,VALID,0,VALID,98.7223,VALID,-0.0169808,VALID,19.0104,VALID,97,VALID,0.322846,
2001-02-07, 03:16:00,VALID,914.672,VALID,0,VALID,98.7147,VALID,-0.0169808,VALID,19.0104,VALID,97,VALID,0.09375,
2001-02-07, 03:17:00,VALID,914.661,VALID,0,VALID,98.7223,VALID,-0.0509425,VALID,19.0174,VALID,93,VALID,0.233915,
2001-02-07, 03:18:00,VALID,914.654,VALID,0,VALID,98.6969,VALID,-0.0169808,VALID,19.0109,VALID,68,VALID,0.0613281,
2001-02-07, 03:19:00,VALID,914.631,VALID,0,VALID,98.6905,VALID,-0.0169808,VALID,19.0107,VALID,71,VALID,0.0405016,
2001-02-07, 03:20:00,VALID,914.609,VALID,0,VALID,98.6994,VALID,-0.0169808,VALID,19.0137,VALID,73,VALID,0.115785,
2001-02-07, 03:21:00,VALID,914.602,VALID,0,VALID,98.688,VALID,0,VALID,19.0169,VALID,75,VALID,0,
2001-02-07, 03:22:00,VALID,914.588,VALID,0,VALID,98.6485,VALID,0,VALID,19.004,VALID,78,VALID,0,
2001-02-07, 03:23:00,VALID,914.571,VALID,0,VALID,98.646,VALID,-0.0169808,VALID,19.0109,VALID,79,VALID,0,
2001-02-07, 03:24:00,VALID,914.56,VALID,0.2,VALID,98.6422,VALID,0,VALID,19.0077,VALID,73,VALID,0,
2001-02-07, 03:25:00,VALID,914.549,VALID,0,VALID,98.6435,VALID,0,VALID,19.0007,VALID,72,VALID,0,
2001-02-07, 03:26:00,VALID,914.534,VALID,0,VALID,98.6511,VALID,0,VALID,19.001,VALID,72,VALID,0,
2001-02-07, 03:27:00,VALID,914.53,VALID,0,VALID,98.6689,VALID,-0.0169808,VALID,19.0044,VALID,72,VALID,0,
2001-02-07, 03:28:00,VALID,914.52,VALID,0,VALID,98.6841,VALID,-0.0169808,VALID,19.0012,VALID,72,VALID,0,
2001-02-07, 03:29:00,VALID,914.522,VALID,0,VALID,98.688,VALID,0,VALID,18.9848,VALID,8,VALID,0,
2001-02-07, 03:30:00,VALID,914.509,VALID,0,VALID,98.6803,VALID,-0.0169808,VALID,18.952,VALID,330,VALID,0,
2001-02-07, 03:31:00,VALID,914.522,VALID,0,VALID,98.693,VALID,-0.0169808,VALID,18.953,VALID,317,VALID,0,
2001-02-07, 03:32:00,VALID,914.51,VALID,0,VALID,98.7223,VALID,-0.0169808,VALID,18.9394,VALID,318,VALID,0,
2001-02-07, 03:33:00,VALID,914.516,VALID,0,VALID,98.7655,VALID,0,VALID,18.962,VALID,319,VALID,0,
2001-02-07, 03:34:00,VALID,914.511,VALID,0,VALID,98.7871,VALID,-0.0169808,VALID,18.9687,VALID,319,VALID,0,
2001-02-07, 03:35:00,VALID,914.513,VALID,0,VALID,98.7999,VALID,-0.0169808,VALID,18.9555,VALID,319,VALID,0,
2001-02-07, 03:36:00,VALID,914.498,VALID,0,VALID,98.8088,VALID,0,VALID,18.9491,VALID,318,VALID,0,
2001-02-07, 03:37:00,VALID,914.506,VALID,0,VALID,98.8113,VALID,-0.0169808,VALID,18.9331,VALID,310,VALID,0,
2001-02-07, 03:38:00,VALID,914.501,VALID,0.2,VALID,98.8151,VALID,-0.0169808,VALID,18.9235,VALID,310,VALID,0,